Baltimore,Washington International Thurgood Marshal Airport Baltimore US
ICAO: KBWI
IATA: BWI
Category: Large
Scheduled Services: Yes

Elevation: 146 ft
TransAlt. 18000 ft.

Airport Communications:
POTOMAC APP:119
ATIS:115.1
CLNC DEL:118.05
POTOMAC DEP:126.75
GND:121.9
LEESBURG RDO:122.2
TWR:119.4
UNICOM:122.95

KBWI Zoom In..

If you have problems with the map follow the link
https://www.worldairports.se/pages/airport.php?
ICAO=KBWI

Runways:

(A) RW 04 length 6000 ft width 150 ft
---- / hdg 44

(B) RW 10 length 10502 ft width 150 ft
ILS 109.70 / hdg 105

(C) RW 15L length 5000 ft width 100 ft
ILS 111.95 / hdg 155

(D) RW 15R length 9501 ft width 150 ft
ILS 111.70 / hdg 155

(E) RW 22 length 6000 ft width 150 ft
---- / hdg 224

(F) RW 28 length 10502 ft width 150 ft
ILS 109.70 / hdg 285

(G) RW 33L length 9501 ft width 150 ft
ILS 111.70 / hdg 335

(H) RW 33R length 5000 ft width 100 ft
ILS 111.95 / hdg 335

Location; KBWI
Day. 16 / Time. 10.54 Zulu
* Altimeter: 29.76
* Temperature: 02° c. 35.6°f.
* Wind from: 260° Speed 09 kn.
Dewpoint: 01° c.
Visibility: 10 Statute Miles.
Clouds: Scattered 1900 ft.
Clouds: Broken 3300 ft.
Clouds: Broken 7000 ft.

KBWI 161054Z 26009KT 10SM SCT019 BKN033 BKN070 02/01 A2976 RMK AO2 PRESRR SLP080 T00220006 $


Wind From 260°
Speed 09 kn.

 
 
jpsmedia.com for Web Design worldairports.se 2018   terms of use